When you browse on this site, cookies collect data to enhance your experience and personalize the content and advertising you see.
Visit our Privacy Policy to learn more. By continuing to use the site, you agree to this use of cookies and data.

Stündliche Wetter Slovyansk

Heute, 20 September, Sonntag

Zeit Temperatur Niederschläge Wind Luftdruck Luftfeuchtigkeit
00:00 +11°C° 0 mm 3 m/S 757 mmHg 61%
01:00 +10°C° 0 mm 3 m/S 757 mmHg 63%
02:00 +10°C° 0 mm 2 m/S 757 mmHg 64%
03:00 +9°C° 0 mm 2 m/S 757 mmHg 65%
04:00 +9°C° 0 mm 2 m/S 757 mmHg 68%
05:00 +8°C° 0 mm 2 m/S 757 mmHg 71%
06:00 +8°C° 0 mm 2 m/S 757 mmHg 73%
07:00 +10°C° 0 mm 3 m/S 757 mmHg 67%
08:00 +12°C° 0 mm 3 m/S 757 mmHg 60%
09:00 +14°C° 0 mm 3 m/S 758 mmHg 54%
10:00 +17°C° 0 mm 4 m/S 758 mmHg 47%
11:00 +19°C° 0 mm 5 m/S 758 mmHg 41%
12:00 +20°C° 0 mm 5 m/S 758 mmHg 34%
13:00 +21°C° 0 mm 5 m/S 758 mmHg 32%
14:00 +21°C° 0 mm 5 m/S 758 mmHg 30%
15:00 +22°C° 0 mm 5 m/S 758 mmHg 28%
16:00 +20°C° 0 mm 4 m/S 758 mmHg 31%
17:00 +19°C° 0 mm 4 m/S 758 mmHg 33%
18:00 +18°C° 0 mm 3 m/S 758 mmHg 36%
19:00 +16°C° 0 mm 3 m/S 759 mmHg 41%
20:00 +13°C° 0 mm 3 m/S 759 mmHg 47%
21:00 +12°C° 0 mm 2 m/S 760 mmHg 52%
22:00 +10°C° 0 mm 2 m/S 760 mmHg 56%
23:00 +9°C° 0 mm 2 m/S 761 mmHg 59%

Morgen, 21 September, Montag

Zeit Temperatur Niederschläge Wind Luftdruck Luftfeuchtigkeit
00:00 +9°C° 0 mm 2 m/S 761 mmHg 63%
01:00 +9°C° 0 mm 1 m/S 761 mmHg 65%
02:00 +8°C° 0 mm 1 m/S 761 mmHg 66%
03:00 +8°C° 0 mm 1 m/S 761 mmHg 68%
04:00 +7°C° 0 mm 1 m/S 761 mmHg 70%
05:00 +7°C° 0 mm 1 m/S 761 mmHg 71%
06:00 +6°C° 0 mm 0 m/S 762 mmHg 73%
07:00 +8°C° 0 mm 0 m/S 762 mmHg 63%
08:00 +12°C° 0 mm 1 m/S 762 mmHg 53%
09:00 +14°C° 0 mm 1 m/S 762 mmHg 43%
10:00 +16°C° 0 mm 1 m/S 762 mmHg 37%
11:00 +19°C° 0 mm 1 m/S 762 mmHg 31%
12:00 +21°C° 0 mm 1 m/S 762 mmHg 26%
13:00 +22°C° 0 mm 1 m/S 761 mmHg 23%
14:00 +22°C° 0 mm 1 m/S 761 mmHg 21%
15:00 +23°C° 0 mm 2 m/S 760 mmHg 19%
16:00 +22°C° 0 mm 1 m/S 760 mmHg 21%
17:00 +20°C° 0 mm 1 m/S 760 mmHg 23%
18:00 +19°C° 0 mm 1 m/S 760 mmHg 25%
19:00 +16°C° 0 mm 1 m/S 760 mmHg 28%
20:00 +15°C° 0 mm 1 m/S 760 mmHg 31%
21:00 +13°C° 0 mm 1 m/S 761 mmHg 34%
22:00 +11°C° 0 mm 0 m/S 761 mmHg 36%
23:00 +11°C° 0 mm 0 m/S 761 mmHg 38%

übermorgen, 22 September, Dienstag

Zeit Temperatur Niederschläge Wind Luftdruck Luftfeuchtigkeit
00:00 +10°C° 0 mm 0 m/S 761 mmHg 40%
01:00 +10°C° 0 mm 0 m/S 761 mmHg 41%
02:00 +9°C° 0 mm 0 m/S 761 mmHg 42%
03:00 +9°C° 0 mm 0 m/S 761 mmHg 43%
04:00 +9°C° 0 mm 0 m/S 761 mmHg 45%
05:00 +8°C° 0 mm 0 m/S 761 mmHg 46%
06:00 +8°C° 0 mm 0 m/S 761 mmHg 47%
07:00 +11°C° 0 mm 0 m/S 761 mmHg 41%
08:00 +14°C° 0 mm 0 m/S 761 mmHg 35%
09:00 +16°C° 0 mm 0 m/S 761 mmHg 29%
10:00 +18°C° 0 mm 0 m/S 761 mmHg 26%
11:00 +20°C° 0 mm 0 m/S 761 mmHg 23%
12:00 +23°C° 0 mm 0 m/S 761 mmHg 19%
13:00 +23°C° 0 mm 0 m/S 761 mmHg 18%
14:00 +24°C° 0 mm 0 m/S 760 mmHg 17%
15:00 +26°C° 0 mm 1 m/S 760 mmHg 16%
16:00 +25°C° 0 mm 1 m/S 760 mmHg 18%
17:00 +21°C° 0 mm 0 m/S 760 mmHg 20%
18:00 +19°C° 0 mm 0 m/S 759 mmHg 22%
19:00 +18°C° 0 mm 0 m/S 760 mmHg 24%
20:00 +16°C° 0 mm 0 m/S 760 mmHg 27%
21:00 +14°C° 0 mm 0 m/S 760 mmHg 29%
22:00 +14°C° 0 mm 0 m/S 760 mmHg 30%
23:00 +13°C° 0 mm 0 m/S 760 mmHg 31%

23 September, Mittwoch

Zeit Temperatur Niederschläge Wind Luftdruck Luftfeuchtigkeit
00:00 +13°C° 0 mm 0 m/S 760 mmHg 32%
01:00 +12°C° 0 mm 0 m/S 759 mmHg 33%
02:00 +12°C° 0 mm 0 m/S 759 mmHg 34%
03:00 +11°C° 0 mm 0 m/S 759 mmHg 35%
04:00 +11°C° 0 mm 0 m/S 759 mmHg 35%
05:00 +11°C° 0 mm 0 m/S 759 mmHg 36%
06:00 +10°C° 0 mm 0 m/S 759 mmHg 37%
07:00 +14°C° 0 mm 1 m/S 760 mmHg 32%
08:00 +18°C° 0 mm 1 m/S 760 mmHg 27%
09:00 +21°C° 0 mm 1 m/S 760 mmHg 23%
10:00 +23°C° 0 mm 2 m/S 759 mmHg 20%
11:00 +25°C° 0 mm 2 m/S 759 mmHg 18%
12:00 +27°C° 0 mm 2 m/S 759 mmHg 15%
13:00 +27°C° 0 mm 2 m/S 758 mmHg 14%
14:00 +28°C° 0 mm 2 m/S 758 mmHg 13%
15:00 +28°C° 0 mm 2 m/S 758 mmHg 13%
16:00 +27°C° 0 mm 2 m/S 757 mmHg 14%
17:00 +25°C° 0 mm 2 m/S 757 mmHg 16%
18:00 +24°C° 0 mm 2 m/S 757 mmHg 18%
19:00 +21°C° 0 mm 2 m/S 757 mmHg 20%
20:00 +19°C° 0 mm 2 m/S 757 mmHg 23%
21:00 +17°C° 0 mm 2 m/S 757 mmHg 25%
22:00 +17°C° 0 mm 2 m/S 757 mmHg 26%
23:00 +16°C° 0 mm 2 m/S 757 mmHg 27%

24 September, Donnerstag

Zeit Temperatur Niederschläge Wind Luftdruck Luftfeuchtigkeit
00:00 +15°C° 0 mm 2 m/S 757 mmHg 29%
01:00 +15°C° 0 mm 2 m/S 757 mmHg 30%
02:00 +14°C° 0 mm 2 m/S 757 mmHg 31%
03:00 +14°C° 0 mm 2 m/S 757 mmHg 33%
04:00 +13°C° 0 mm 2 m/S 757 mmHg 34%
05:00 +13°C° 0 mm 2 m/S 757 mmHg 35%
06:00 +13°C° 0 mm 2 m/S 757 mmHg 37%
07:00 +15°C° 0 mm 2 m/S 757 mmHg 32%
08:00 +18°C° 0 mm 3 m/S 757 mmHg 28%
09:00 +20°C° 0 mm 3 m/S 757 mmHg 24%
10:00 +24°C° 0 mm 3 m/S 757 mmHg 22%
11:00 +26°C° 0 mm 3 m/S 757 mmHg 20%
12:00 +28°C° 0 mm 4 m/S 757 mmHg 19%
13:00 +29°C° 0 mm 4 m/S 756 mmHg 18%
14:00 +29°C° 0 mm 4 m/S 756 mmHg 17%
15:00 +30°C° 0 mm 4 m/S 756 mmHg 16%
16:00 +28°C° 0 mm 4 m/S 756 mmHg 18%
17:00 +27°C° 0 mm 3 m/S 755 mmHg 20%
18:00 +25°C° 0 mm 3 m/S 755 mmHg 22%
19:00 +22°C° 0 mm 3 m/S 755 mmHg 24%
20:00 +20°C° 0 mm 3 m/S 755 mmHg 26%
21:00 +19°C° 0 mm 3 m/S 756 mmHg 28%
22:00 +18°C° 0 mm 3 m/S 756 mmHg 29%
23:00 +17°C° 0 mm 3 m/S 755 mmHg 30%

25 September, Freitag

Zeit Temperatur Niederschläge Wind Luftdruck Luftfeuchtigkeit
00:00 +17°C° 0 mm 3 m/S 755 mmHg 31%
01:00 +16°C° 0 mm 3 m/S 755 mmHg 34%
02:00 +16°C° 0 mm 3 m/S 755 mmHg 36%
03:00 +15°C° 0 mm 2 m/S 755 mmHg 39%
04:00 +14°C° 0 mm 3 m/S 755 mmHg 40%
05:00 +13°C° 0 mm 3 m/S 755 mmHg 42%
06:00 +13°C° 0 mm 3 m/S 755 mmHg 43%
07:00 +15°C° 0 mm 4 m/S 755 mmHg 39%
08:00 +19°C° 0 mm 5 m/S 755 mmHg 35%
09:00 +21°C° 0 mm 5 m/S 755 mmHg 31%
10:00 +23°C° 0 mm 6 m/S 754 mmHg 28%
11:00 +26°C° 0 mm 6 m/S 754 mmHg 26%
12:00 +28°C° 0 mm 7 m/S 753 mmHg 23%
13:00 +29°C° 0 mm 7 m/S 753 mmHg 22%
14:00 +29°C° 0 mm 7 m/S 753 mmHg 21%
15:00 +30°C° 0 mm 7 m/S 752 mmHg 19%
16:00 +29°C° 0 mm 7 m/S 752 mmHg 21%
17:00 +27°C° 0 mm 6 m/S 752 mmHg 23%
18:00 +26°C° 0 mm 5 m/S 752 mmHg 25%
19:00 +25°C° 0 mm 5 m/S 752 mmHg 27%
20:00 +23°C° 0 mm 6 m/S 752 mmHg 29%
21:00 +22°C° 0 mm 6 m/S 752 mmHg 31%
22:00 +21°C° 0 mm 6 m/S 751 mmHg 32%
23:00 +21°C° 0 mm 6 m/S 751 mmHg 32%
Mehr zeigen